KD8BMB Weather Reports


time (UTC)temp
F
wind
direction
speed
knots
gust
knots
rain 1hr
in
rain 24hr
in
rain mn
in
humidity
%
barometer
mb
20221207230354 41 323 0.9 0.9 0.00 0.00 0.00 90 1025.1
20221207225854 41 303 0.9 0.9 0.00 0.00 0.00 89 1025.3
20221207225354 41 302 0.9 0.9 0.00 0.00 0.00 89 1025.1
20221207224853 41 328 1.7 5.2 0.00 0.00 0.00 89 1025.1
20221207224353 41 313 1.7 1.7 0.00 0.00 0.00 89 1025.0
20221207223852 41 319 1.7 1.7 0.00 0.00 0.00 89 1024.7
20221207223350 41 356 0.0 0.0 0.00 0.00 0.00 89 1024.7
20221207222850 41 309 0.0 0.0 0.00 0.00 0.00 89 1024.7
20221207222349 41 326 0.0 0.0 0.00 0.00 0.00 89 1024.7
20221207221848 41 280 0.0 0.0 0.00 0.00 0.00 89 1024.7
20221207221346 41 294 0.9 0.9 0.00 0.00 0.00 89 1024.6
20221207220845 42 315 0.0 0.0 0.00 0.00 0.00 89 1024.6
20221207220344 42 343 0.0 0.9 0.00 0.00 0.00 89 1024.4
20221207215843 42 324 0.9 1.7 0.00 0.00 0.00 89 1024.5
20221207215342 42 328 0.9 0.9 0.00 0.00 0.00 88 1024.3
20221207214842 42 312 1.7 1.7 0.00 0.00 0.00 88 1024.3
20221207214340 42 3 1.7 1.7 0.00 0.00 0.00 87 1024.2
20221207213841 42 288 1.7 1.7 0.00 0.00 0.00 87 1024.1
20221207213339 42 330 0.0 0.0 0.00 0.00 0.00 87 1024.2
20221207212838 42 233 0.9 0.9 0.00 0.00 0.00 87 1024.2
20221207212337 42 270 0.9 1.7 0.00 0.00 0.00 87 1024.0
20221207211837 42 261 2.6 2.6 0.00 0.00 0.00 87 1024.1
20221207211334 42 276 0.9 1.7 0.00 0.00 0.00 87 1024.1
20221207210832 42 216 0.9 1.7 0.00 0.00 0.00 87 1023.9
20221207210330 42 280 1.7 1.7 0.00 0.00 0.00 87 1023.8
20221207205829 42 267 4.3 6.1 0.00 0.00 0.00 86 1023.9
20221207205329 43 246 2.6 2.6 0.00 0.00 0.00 86 1023.6
20221207204828 43 273 2.6 4.3 0.00 0.00 0.00 86 1023.6
20221207204326 43 304 2.6 2.6 0.00 0.00 0.00 85 1023.8
20221207203826 43 280 1.7 1.7 0.00 0.00 0.00 85 1023.5
20221207203325 43 293 1.7 1.7 0.00 0.00 0.00 85 1023.7
20221207202825 43 305 0.9 1.7 0.00 0.00 0.00 84 1023.3
20221207202323 43 288 2.6 2.6 0.00 0.00 0.00 84 1023.4
20221207201822 44 283 0.9 0.9 0.00 0.00 0.00 83 1023.4
20221207201320 44 299 0.9 0.9 0.00 0.00 0.00 83 1023.2
20221207200820 44 302 1.7 1.7 0.00 0.00 0.00 83 1023.3
20221207200318 44 280 0.9 1.7 0.00 0.00 0.00 83 1022.9
20221207195818 44 293 0.9 0.9 0.00 0.00 0.00 83 1023.0
20221207195318 44 221 0.0 0.9 0.00 0.00 0.00 83 1023.0
20221207194817 44 246 1.7 1.7 0.00 0.00 0.00 83 1022.8
20221207194315 44 317 1.7 1.7 0.00 0.00 0.00 83 1022.7
20221207193813 44 259 0.9 1.7 0.00 0.00 0.00 83 1022.8
20221207193312 44 260 0.9 0.9 0.00 0.00 0.00 83 1022.9
20221207192811 44 246 0.9 0.9 0.00 0.00 0.00 83 1022.9
20221207192309 44 290 0.9 0.9 0.00 0.00 0.00 82 1023.0
20221207191809 44 244 0.9 0.9 0.00 0.00 0.00 82 1022.6
20221207191307 44 336 0.0 0.0 0.00 0.00 0.00 83 1022.8
20221207190806 45 122 0.0 0.0 0.00 0.00 0.00 82 1022.7
20221207190305 44 251 0.0 0.0 0.00 0.00 0.00 83 1022.6
20221207185805 44 260 0.9 0.9 0.00 0.00 0.00 83 1022.6
20221207185306 44 281 0.9 0.9 0.00 0.00 0.00 83 1022.9
20221207184804 44 296 0.0 0.0 0.00 0.00 0.00 83 1023.0
20221207184302 45 55 0.0 0.9 0.00 0.00 0.00 82 1022.8
20221207183800 45 223 0.9 0.9 0.00 0.00 0.00 81 1022.7
20221207183259 44 290 0.0 0.0 0.00 0.00 0.00 82 1022.6
20221207182759 44 1 0.0 0.0 0.00 0.00 0.00 83 1022.6
20221207182257 44 210 0.0 0.9 0.00 0.00 0.00 83 1022.8
20221207181756 44 304 0.0 0.0 0.00 0.00 0.00 84 1022.8
20221207181255 44 317 0.0 0.9 0.00 0.00 0.00 83 1022.8
20221207180754 44 114 0.9 1.7 0.00 0.00 0.00 84 1022.8
20221207180252 44 301 0.0 0.0 0.00 0.00 0.00 83 1022.8
20221207175751 44 7 0.0 0.9 0.00 0.00 0.00 84 1022.8
20221207175252 43 300 0.0 0.0 0.00 0.00 0.00 84 1022.8
20221207174751 43 66 0.0 0.0 0.00 0.00 0.00 84 1022.8
20221207174250 43 256 0.0 0.0 0.00 0.00 0.00 85 1023.0
20221207173749 42 265 0.9 0.9 0.00 0.00 0.00 85 1023.3
20221207173249 43 300 0.9 0.9 0.00 0.00 0.00 86 1023.1
20221207172748 43 322 0.0 0.0 0.00 0.00 0.00 86 1022.8
20221207172246 43 65 0.0 0.0 0.00 0.00 0.00 86 1023.0
20221207171745 43 331 0.9 0.9 0.00 0.00 0.00 86 1023.0
20221207171244 43 12 0.0 0.0 0.00 0.00 0.00 88 1023.1
20221207170744 43 31 0.9 0.9 0.00 0.00 0.00 86 1022.9
20221207170243 42 23 0.9 0.9 0.00 0.00 0.00 86 1023.0
20221207165743 42 60 0.0 0.0 0.00 0.00 0.00 86 1022.9
20221207165241 42 56 1.7 1.7 0.00 0.00 0.00 86 1023.1
20221207164740 42 53 0.0 0.9 0.00 0.00 0.00 87 1023.1
20221207164239 42 39 0.9 1.7 0.00 0.00 0.00 86 1023.0
20221207163739 42 39 0.0 0.9 0.00 0.00 0.00 86 1023.1
20221207163240 42 70 1.7 1.7 0.00 0.00 0.00 86 1023.0
20221207162739 42 46 0.0 0.9 0.00 0.00 0.00 87 1023.0
20221207162238 42 77 0.9 0.9 0.00 0.00 0.00 86 1022.9
20221207161737 42 71 3.5 5.2 0.00 0.00 0.00 86 1023.0
20221207161235 42 68 0.9 1.7 0.00 0.00 0.00 86 1023.0
20221207160734 43 81 0.0 0.0 0.00 0.00 0.00 86 1023.1
20221207160232 42 58 1.7 4.3 0.00 0.00 0.00 87 1022.9
20221207155730 42 62 0.9 1.7 0.00 0.00 0.00 88 1023.0
20221207155229 42 40 0.0 0.9 0.00 0.00 0.00 88 1023.0
20221207154728 42 65 0.0 0.9 0.00 0.00 0.00 89 1022.9
20221207154227 42 354 0.0 0.0 0.00 0.00 0.00 90 1022.8
20221207153727 42 63 0.0 0.0 0.00 0.00 0.00 89 1022.8
20221207153225 41 46 0.9 1.7 0.00 0.00 0.00 91 1023.0
20221207152725 41 21 1.7 1.7 0.00 0.00 0.00 91 1022.8
20221207152225 41 67 0.0 0.0 0.00 0.00 0.00 91 1022.5
20221207151724 41 12 2.6 2.6 0.00 0.00 0.00 92 1022.9
20221207151224 40 50 0.0 0.0 0.00 0.00 0.00 93 1022.6
20221207150723 40 74 0.9 1.7 0.00 0.00 0.00 93 1022.5
20221207150221 40 66 0.9 0.9 0.00 0.00 0.00 94 1022.4
20221207145720 39 53 0.9 0.9 0.00 0.00 0.00 94 1022.4
20221207145220 40 53 0.0 0.0 0.00 0.00 0.00 95 1022.5
20221207144719 39 55 0.0 0.9 0.00 0.00 0.00 96 1022.1
20221207144218 39 79 1.7 1.7 0.00 0.00 0.00 96 1022.3
20221207143716 39 38 0.9 1.7 0.00 0.00 0.00 96 1022.4
20221207143216 39 55 0.0 0.0 0.00 0.00 0.00 97 1022.2
20221207142714 39 49 0.9 1.7 0.00 0.00 0.00 97 1022.0
20221207142213 39 70 0.0 0.0 0.00 0.00 0.00 97 1022.0
20221207141712 39 318 0.0 0.9 0.00 0.00 0.00 97 1021.8
20221207141211 39 15 0.9 0.9 0.00 0.00 0.00 98 1021.8
20221207140710 39 4 0.9 0.9 0.00 0.00 0.00 98 1021.6
20221207140209 39 16 0.9 0.9 0.00 0.00 0.00 98 1022.1
20221207135708 39 341 0.0 0.9 0.00 0.00 0.00 98 1022.0
20221207135208 39 40 0.0 0.0 0.00 0.00 0.00 99 1022.0
20221207134706 39 318 0.0 0.0 0.00 0.00 0.00 99 1022.0
20221207134205 38 73 0.0 0.9 0.00 0.00 0.00 99 1021.7
20221207133703 38 327 0.0 0.0 0.00 0.00 0.00 99 1022.0
20221207133201 38 330 0.0 0.0 0.00 0.00 0.00 99 1021.8
20221207132701 38 338 0.0 0.0 0.00 0.00 0.00 99 1021.5
20221207132200 38 287 0.0 0.0 0.00 0.00 0.00 99 1021.7
20221207131659 38 287 0.0 0.0 0.00 0.00 0.00 99 1021.6
20221207131158 38 302 0.0 0.0 0.00 0.00 0.00 99 1021.8
20221207130656 38 303 0.0 0.0 0.00 0.00 0.00 99 1021.6
20221207130155 38 287 0.0 0.0 0.00 0.00 0.00 99 1021.4
20221207125655 38 287 0.0 0.0 0.00 0.00 0.00 99 1021.5
20221207125155 38 314 0.0 0.0 0.00 0.00 0.00 99 1021.3
20221207124654 38 306 0.0 0.0 0.00 0.00 0.00 99 1021.4
20221207124153 38 310 0.0 0.9 0.00 0.00 0.00 99 1021.5
20221207123653 38 309 0.0 0.0 0.00 0.00 0.00 99 1021.2
20221207123152 38 321 0.0 0.0 0.00 0.00 0.00 99 1021.2
20221207122650 38 343 0.0 0.9 0.00 0.00 0.00 99 1021.0
20221207122150 38 331 0.0 0.0 0.00 0.00 0.00 99 1021.3
20221207121650 38 313 0.0 0.9 0.00 0.00 0.00 99 1021.2
20221207121149 38 306 0.0 0.0 0.00 0.00 0.00 99 1021.3
20221207120648 38 322 0.0 0.0 0.00 0.00 0.00 99 1021.1
20221207120147 38 321 0.0 0.0 0.00 0.00 0.00 99 1021.2
20221207115647 38 311 0.0 0.0 0.00 0.00 0.00 99 1021.3
20221207115312 38 311 0.0 0.0 0.00 0.00 0.00 99 1021.2
20221207115145 38 311 0.0 0.0 0.00 0.00 0.00 99 1021.2
20221207114644 38 321 0.0 0.0 0.00 0.00 0.00 99 1021.2
20221207114142 38 310 0.0 0.0 0.00 0.00 0.00 99 1020.9
20221207113640 38 318 0.0 0.0 0.00 0.00 0.00 99 1020.7
20221207113138 38 318 0.0 0.0 0.00 0.00 0.00 99 1020.9
20221207112637 38 311 0.0 0.0 0.00 0.00 0.00 99 1021.1
20221207112136 38 301 0.0 0.0 0.00 0.00 0.00 99 1020.9
20221207111636 38 270 0.0 0.0 0.00 0.00 0.00 99 1021.1
20221207111135 38 270 0.0 0.0 0.00 0.00 0.00 99 1021.1
20221207110635 38 289 0.0 0.0 0.00 0.00 0.00 99 1020.8
20221207110134 38 313 0.0 0.0 0.00 0.00 0.00 99 1020.9
20221207105633 38 313 0.0 0.0 0.00 0.00 0.00 99 1020.9
20221207105132 38 317 0.0 0.0 0.00 0.00 0.00 99 1020.7
20221207104631 38 338 0.0 0.0 0.00 0.00 0.00 99 1020.8
20221207104131 38 312 0.0 0.0 0.00 0.00 0.00 99 1020.8
20221207103629 38 325 0.0 0.0 0.00 0.00 0.00 99 1020.9
20221207103128 38 348 0.0 0.9 0.00 0.00 0.00 99 1020.8
20221207102627 38 41 0.9 0.9 0.00 0.00 0.00 99 1020.6
20221207102125 38 319 0.0 0.0 0.00 0.00 0.00 99 1020.5
20221207101625 38 346 0.9 0.9 0.00 0.00 0.00 99 1020.6
20221207101123 38 337 0.0 0.9 0.00 0.00 0.00 99 1020.4
20221207100621 38 38 0.0 0.0 0.00 0.00 0.00 99 1020.4
20221207100121 38 3 0.0 0.9 0.00 0.00 0.00 99 1020.3
20221207095620 38 346 0.0 0.0 0.00 0.00 0.00 99 1020.2
20221207095120 38 328 0.0 0.0 0.00 0.00 0.00 99 1020.3
20221207094619 38 318 0.0 0.0 0.00 0.00 0.00 99 1020.2
20221207094118 38 330 0.0 0.0 0.00 0.00 0.00 99 1020.2
20221207093617 38 317 0.0 0.0 0.00 0.00 0.00 99 1020.2
20221207093116 38 309 0.0 0.0 0.00 0.00 0.00 99 1020.2
20221207092616 38 309 0.0 0.0 0.00 0.00 0.00 99 1020.3
20221207092115 38 11 0.0 0.0 0.00 0.00 0.00 99 1020.2
20221207091615 38 353 0.9 0.9 0.00 0.00 0.00 99 1020.1
20221207091115 38 20 2.6 2.6 0.00 0.00 0.00 99 1019.9
20221207090614 38 27 2.6 2.6 0.00 0.00 0.00 99 1020.1
20221207090113 39 321 0.9 1.7 0.00 0.00 0.00 99 1020.0
20221207085613 39 30 0.0 0.0 0.00 0.00 0.00 99 1020.0
20221207085111 39 5 0.9 1.7 0.00 0.00 0.00 99 1020.2
20221207084610 39 325 1.7 1.7 0.00 0.00 0.00 99 1020.2
20221207084110 39 289 2.6 2.6 0.00 0.00 0.00 99 1020.0
20221207083608 39 323 0.0 0.9 0.00 0.00 0.00 99 1020.1
20221207083107 39 13 1.7 1.7 0.00 0.00 0.00 99 1020.2
20221207082605 39 347 0.9 0.9 0.00 0.00 0.00 99 1020.2
20221207082105 39 7 1.7 1.7 0.00 0.00 0.00 99 1020.0
20221207081604 39 312 1.7 1.7 0.00 0.00 0.00 99 1020.0
20221207081102 39 306 0.0 0.9 0.00 0.00 0.00 99 1020.0
20221207080602 39 320 0.0 0.0 0.00 0.00 0.00 99 1019.9
20221207080100 39 320 0.0 0.9 0.00 0.00 0.00 99 1019.8
20221207075559 39 288 0.0 0.0 0.00 0.00 0.00 99 1019.9
20221207075057 39 325 0.0 0.9 0.00 0.00 0.00 99 1019.7
20221207074555 39 294 0.0 0.9 0.00 0.00 0.00 99 1019.8
20221207074054 39 312 0.0 0.0 0.00 0.00 0.00 99 1019.8
20221207073552 39 328 0.0 0.0 0.00 0.00 0.00 99 1019.9
20221207073051 39 316 0.0 0.0 0.00 0.00 0.00 99 1019.7
20221207072550 39 339 0.9 0.9 0.00 0.00 0.00 99 1019.6
20221207072049 39 322 0.9 1.7 0.00 0.00 0.00 99 1019.8
20221207071548 39 328 0.9 0.9 0.00 0.00 0.00 99 1019.6
20221207071047 39 318 1.7 1.7 0.00 0.00 0.00 99 1019.9
20221207070545 39 312 0.9 0.9 0.00 0.00 0.00 99 1019.8
20221207070043 39 298 0.9 1.7 0.00 0.00 0.00 99 1019.7
20221207065542 39 310 2.6 2.6 0.00 0.00 0.00 99 1019.9
20221207065038 39 313 2.6 2.6 0.00 0.00 0.00 99 1019.7
20221207064537 39 306 0.9 0.9 0.00 0.00 0.00 99 1019.6
20221207064037 39 300 0.9 0.9 0.00 0.00 0.00 99 1019.7
20221207063534 39 292 1.7 2.6 0.00 0.00 0.00 99 1019.7
20221207063032 39 316 2.6 5.2 0.00 0.00 0.00 99 1019.4
20221207062531 39 345 1.7 1.7 0.00 0.00 0.00 99 1019.4
20221207062030 39 328 1.7 1.7 0.00 0.00 0.00 99 1019.5
20221207061529 39 295 0.0 0.0 0.00 0.00 0.00 99 1019.3
20221207061027 39 309 1.7 1.7 0.00 0.00 0.00 99 1019.3
20221207060527 39 286 0.0 0.0 0.00 0.00 0.00 99 1018.8
20221207060026 39 286 0.0 0.0 0.00 0.00 0.00 99 1018.9
20221207055526 39 281 0.0 0.0 0.00 0.00 0.00 99 1019.0
20221207055025 39 287 0.0 0.0 0.00 0.00 0.00 99 1018.8
20221207054524 39 284 0.0 0.0 0.00 0.00 0.00 99 1019.0
20221207054022 39 289 0.0 0.0 0.00 0.00 0.00 99 1019.0
20221207053522 39 298 0.0 0.0 0.00 0.00 0.00 99 1019.1
20221207053020 39 288 0.0 0.0 0.00 0.00 0.00 99 1018.8
20221207052519 39 297 0.0 0.0 0.00 0.00 0.00 99 1018.6
20221207052018 39 295 0.0 0.0 0.00 0.00 0.00 99 1018.6
20221207051517 39 310 0.0 0.0 0.00 0.00 0.00 99 1018.7
20221207051017 39 276 0.0 0.0 0.00 0.00 0.00 99 1018.7
20221207050517 39 195 0.0 0.0 0.00 0.00 0.00 99 1018.5
20221207050017 39 211 0.0 0.9 0.00 0.00 0.00 99 1018.4
20221207045516 39 254 0.0 0.0 0.00 0.00 0.00 99 1018.5
20221207045016 39 102 0.0 0.0 0.00 0.00 0.00 99 1018.4
20221207044516 39 301 0.0 0.0 0.00 0.00 0.00 99 1018.4
20221207044015 39 308 0.0 0.0 0.00 0.00 0.00 99 1018.6
20221207043515 39 248 0.0 0.0 0.00 0.00 0.00 99 1018.4
20221207043014 39 303 0.0 0.0 0.00 0.00 0.00 99 1018.6
20221207042514 39 305 0.0 0.0 0.00 0.00 0.00 99 1018.3
20221207042013 39 336 0.0 0.0 0.00 0.00 0.00 99 1018.4
20221207041512 39 6 0.0 0.0 0.00 0.00 0.00 99 1018.3
20221207041012 39 59 0.9 0.9 0.00 0.00 0.00 99 1018.3
20221207040512 39 310 0.9 1.7 0.00 0.00 0.00 99 1018.3
20221207040012 39 270 0.9 0.9 0.00 0.03 0.03 99 1018.3
20221207035511 39 240 0.0 0.9 0.00 0.03 0.03 99 1018.4
20221207035009 39 0 0.0 0.0 0.00 0.03 0.03 99 1018.4
20221207034509 39 238 1.7 2.6 0.00 0.03 0.03 99 1018.4
20221207034009 39 304 0.0 0.0 0.07 0.03 0.03 99 1018.0
20221207033509 39 170 0.0 0.0 0.07 0.03 0.03 99 1018.5
20221207033007 39 321 0.0 0.0 0.00 0.02 0.02 99 1018.5
20221207032506 39 119 1.7 1.7 0.00 0.02 0.02 99 1018.2
20221207032004 39 345 0.0 0.0 0.00 0.02 0.02 99 1018.5
20221207031502 39 219 0.0 0.0 0.00 0.02 0.02 99 1018.6
20221207031002 39 78 0.0 0.0 0.00 0.02 0.02 99 1018.6
20221207030501 39 306 0.0 0.0 0.00 0.02 0.02 99 1018.7
20221207030000 39 318 0.0 0.0 0.00 0.02 0.02 99 1018.8
20221207025459 39 328 0.0 0.0 0.00 0.02 0.02 99 1018.7
20221207024959 39 113 0.0 0.0 0.00 0.02 0.02 99 1018.5
20221207024459 39 88 0.0 0.0 0.00 0.02 0.02 99 1018.4
20221207023958 39 88 0.9 0.9 0.00 0.02 0.02 99 1018.1
20221207023458 39 76 0.9 1.7 0.00 0.02 0.02 99 1018.2
20221207022957 38 155 0.9 0.9 0.00 0.02 0.02 99 1018.3
20221207022455 38 96 0.0 0.0 0.00 0.02 0.02 99 1018.4
20221207021953 38 86 0.9 0.9 0.00 0.02 0.02 99 1018.4
20221207021453 38 76 2.6 2.6 0.00 0.02 0.02 99 1018.3
20221207020952 38 106 1.7 1.7 0.00 0.02 0.02 99 1018.6
20221207020451 38 87 1.7 2.6 0.00 0.02 0.02 99 1018.0
20221207015950 38 64 0.9 0.9 0.00 0.02 0.02 98 1018.1
20221207015449 38 71 1.7 1.7 0.00 0.02 0.02 98 1017.8
20221207014949 38 83 0.9 1.7 0.00 0.02 0.02 98 1018.1
20221207014448 38 51 0.0 0.9 0.00 0.02 0.02 97 1018.0
20221207013947 38 77 2.6 2.6 0.00 0.02 0.02 97 1017.9
20221207013446 38 39 0.9 1.7 0.00 0.02 0.02 96 1018.1
20221207012944 39 39 0.0 0.9 0.00 0.02 0.02 96 1018.1
20221207012444 39 88 0.9 1.7 0.00 0.02 0.02 95 1018.1
20221207011942 39 58 0.9 0.9 0.00 0.02 0.02 94 1018.3
20221207011442 39 76 0.9 0.9 0.00 0.02 0.02 93 1018.6
20221207010942 39 71 0.9 0.9 0.00 0.02 0.02 93 1018.4
20221207010440 39 67 0.0 0.9 0.00 0.02 0.02 92 1018.4
20221207005940 39 78 0.9 0.9 0.00 0.02 0.02 92 1018.0
20221207005438 39 46 0.9 0.9 0.00 0.02 0.02 92 1018.4
20221207004937 39 13 0.9 0.9 0.00 0.02 0.02 92 1018.5
20221207004435 39 42 0.9 1.7 0.00 0.02 0.02 92 1018.4
20221207003933 39 54 1.7 1.7 0.00 0.02 0.02 92 1018.6
20221207003430 39 44 1.7 1.7 0.00 0.02 0.02 92 1018.2
20221207002929 39 23 0.0 0.0 0.00 0.02 0.02 92 1018.4
20221207002427 39 340 0.9 0.9 0.00 0.02 0.02 92 1018.6
20221207001927 39 5 0.9 0.9 0.00 0.02 0.02 92 1018.8
20221207001426 39 61 1.7 1.7 0.00 0.02 0.02 92 1018.4
20221207000925 39 59 0.9 0.9 0.00 0.02 0.02 92 1018.2
20221207000423 39 42 0.0 0.0 0.00 0.02 0.02 92 1018.4
20221206235922 39 351 0.9 0.9 0.00 0.02 0.02 91 1018.5
20221206235420 39 32 0.0 0.0 0.00 0.02 0.02 91 1018.5
20221206234918 39 71 0.0 0.0 0.00 0.02 0.02 91 1018.7
20221206234418 39 322 0.0 0.9 0.00 0.02 0.02 91 1018.8
20221206233917 39 343 0.0 0.0 0.00 0.02 0.02 91 1018.5
20221206233414 39 35 0.9 0.9 0.00 0.02 0.02 90 1018.6
20221206232913 39 49 0.9 1.7 0.00 0.02 0.02 90 1018.5
20221206232412 39 18 0.9 0.9 0.00 0.02 0.02 90 1018.5
20221206231912 39 30 0.0 0.9 0.00 0.02 0.02 90 1018.8
20221206231411 39 42 0.0 0.0 0.00 0.02 0.02 91 1018.4
20221206230909 39 43 0.9 1.7 0.00 0.02 0.02 90 1018.6